TimeCDT,TemperatureF,Dew PointF,Humidity,Sea Level PressureIn,VisibilityMPH,Wind Direction,Wind SpeedMPH,Gust SpeedMPH,PrecipitationIn,Events,Conditions,WindDirDegrees,DateUTC
12:54 AM,46.0,28.9,51,30.13,10.0,SE,10.4,-,N/A,,Overcast,140,2013-04-21 05:54:00
1:54 AM,46.0,30.0,54,30.13,10.0,SE,12.7,18.4,N/A,,Overcast,140,2013-04-21 06:54:00
2:54 AM,46.0,30.0,54,30.11,10.0,SSE,9.2,-,N/A,,Overcast,160,2013-04-21 07:54:00
3:54 AM,45.0,30.9,58,30.11,10.0,SSE,9.2,-,N/A,,Overcast,160,2013-04-21 08:54:00
4:54 AM,44.1,32.0,63,30.10,10.0,SSE,9.2,-,N/A,,Overcast,160,2013-04-21 09:54:00
5:54 AM,42.1,32.0,67,30.10,10.0,SSE,8.1,-,N/A,,Overcast,160,2013-04-21 10:54:00
6:54 AM,41.0,33.1,73,30.12,10.0,South,5.8,-,N/A,,Overcast,180,2013-04-21 11:54:00
7:54 AM,44.1,36.0,73,30.12,10.0,South,5.8,-,N/A,,Overcast,180,2013-04-21 12:54:00
8:54 AM,48.9,37.9,66,30.12,10.0,South,10.4,-,N/A,,Overcast,170,2013-04-21 13:54:00
9:54 AM,54.0,39.0,57,30.10,10.0,South,16.1,25.3,N/A,,Overcast,180,2013-04-21 14:54:00
10:54 AM,60.1,37.9,44,30.08,10.0,SSW,20.7,25.3,N/A,,Mostly Cloudy,200,2013-04-21 15:54:00
11:54 AM,64.9,37.0,36,30.06,10.0,South,23.0,34.5,N/A,,Clear,190,2013-04-21 16:54:00
12:54 PM,66.9,37.9,34,30.04,10.0,SSW,24.2,35.7,N/A,,Clear,200,2013-04-21 17:54:00
1:54 PM,69.1,36.0,30,30.01,10.0,SW,21.9,34.5,N/A,,Mostly Cloudy,220,2013-04-21 18:54:00
2:54 PM,66.9,37.0,33,30.01,10.0,SSW,25.3,35.7,N/A,,Mostly Cloudy,200,2013-04-21 19:54:00
3:54 PM,66.9,37.9,34,30.00,10.0,SSW,20.7,31.1,N/A,,Overcast,210,2013-04-21 20:54:00
4:54 PM,70.0,39.9,33,29.98,10.0,SSW,20.7,29.9,N/A,,Mostly Cloudy,200,2013-04-21 21:54:00
5:54 PM,64.9,41.0,42,29.99,10.0,South,19.6,24.2,0.00,,Overcast,180,2013-04-21 22:54:00
6:54 PM,64.9,41.0,42,29.98,10.0,South,19.6,24.2,0.00,,Mostly Cloudy,190,2013-04-21 23:54:00
7:54 PM,64.0,43.0,46,30.00,10.0,WSW,10.4,20.7,0.00,Rain,Light Rain,240,2013-04-22 00:54:00
8:47 PM,51.8,48.2,88,30.08,2.5,North,13.8,-,0.09,Rain,Rain,360,2013-04-22 01:47:00
8:54 PM,52.0,48.0,86,30.09,3.0,NNE,10.4,-,0.11,Rain,Rain,30,2013-04-22 01:54:00
9:46 PM,51.8,48.2,88,30.12,1.8,Variable,4.6,-,0.07,Rain,Heavy Rain,0,2013-04-22 02:46:00
9:54 PM,53.1,48.0,83,30.13,2.0,NW,5.8,-,0.12,Rain,Rain,310,2013-04-22 02:54:00
10:18 PM,51.8,48.2,88,30.11,6.0,ENE,3.5,-,0.10,Rain,Light Rain,70,2013-04-22 03:18:00
10:54 PM,52.0,48.9,89,30.11,10.0,East,3.5,-,0.10,,Overcast,90,2013-04-22 03:54:00
11:54 PM,48.9,48.0,97,30.10,7.0,NNE,3.5,-,N/A,,Overcast,30,2013-04-22 04:54:00